Voltar ao catálogo

OPS 4311

DMSP 5B F1

AtivoMeteoSSO
NORAD 5557·PAYLOAD·🇺🇸 United States

Lançado Oct 14, 1971 de Vandenberg Space Force Base

Loading…

Próximas Passagens (próximas 24 horas)

TLE

AtualizadoSource: Space-Track

Época: Sep 14, 2026, 13:55 UTC

1 05557U 71087A   26257.58021883  .00000111  00000-0  62490-4 0  9990
2 05557  99.0243   2.9887 0050470  11.5492 348.6833 14.28547853853203

Acompanhe OPS 4311 em tempo real com AllMySat

Download on the App Store